Location: Brachstadt
(48.6975°N, 10.6755°E)
Time: 02:54:08
(UTC+00:00)

Resurs 01 Rocket - Pass Details

Date: 18 September 2020
Orbit: 633 x 645 km, 98.0° (Epoch: 24 October)

Event Time Altitude Azimuth Distance (km) Brightness Sun altitude
Exits shadow 19:19:15 43° 104° (ESE) 906 1.9 -19.3°
Maximum altitude 19:20:03 49° 70° (ENE) 834 1.9 -19.4°
Drops below altitude 10° 19:24:22 10° 356° (N) 2,053 4.6 -20.1°
Sets 19:26:38 0° 351° (N) 2,967 5.6 -20.4°
